RH
80 84 86 90 92 96 95 96 98 94 94 89 86 86 83 82 79 79 86 82 78 85 87 89 85 84 83 80 77 66 70 69 66 71 67 73 79 78 74 71 67 63 64 63 62 60 57 55 53 51 48 46 42 39 35 32 31 29 28 27 26 26 32 41 49 50 48 46 45 45 45 47 48 50 49 48 47 45 44 43 43 43 44 46 50 52 53 56 57 58 58 60 56 49 41 29 27
83 85 87 91 92 91 89 91 89 89 93 88 83 80 81 81 78 82 87 85 85 88 87 88 88 85 79 77 74 65 70 72 69 67 60 66 75 77 72 70 69 67 67 64 63 60 57 56 52 49 45 41 37 34 32 31 29 27 27 26 24 27 36 46 50 49 46 44 42 41 40 40 40 41 42 43 44 43 43 43 44 45 48 49 51 52 53 55 55 56 58 60 57 56 50 33 25
86 89 89 86 87 87 86 87 83 88 91 85 82 77 77 79 80 84 84 86 87 87 88 88 85 82 77 77 76 70 68 70 73 64 54 63 71 74 73 72 72 72 70 63 62 59 56 55 50 45 40 36 34 32 30 27 24 24 25 24 26 34 44 49 49 47 44 42 39 38 37 36 36 36 37 39 42 43 42 43 45 48 50 49 50 51 51 52 53 56 59 60 59 60 56 40 28
83 88 86 82 86 90 90 89 85 90 90 81 79 77 78 84 86 87 84 85 88 87 83 82 80 82 79 72 75 74 68 71 76 61 52 65 70 70 71 72 72 73 70 62 59 57 56 53 46 41 36 35 33 30 25 20 21 23 25 28 35 44 48 48 46 44 41 39 37 35 34 33 33 33 34 36 41 42 41 43 47 49 49 48 48 49 50 51 53 56 58 59 59 60 58 50 41
80 83 83 84 90 92 89 91 92 90 86 81 77 76 82 86 88 89 85 83 87 86 82 77 73 81 79 69 71 68 64 69 72 62 55 64 68 65 64 65 66 68 67 60 57 57 55 50 42 38 36 34 29 23 19 20 23 27 31 36 43 46 46 45 43 40 38 36 35 35 34 34 35 34 36 39 42 44 44 45 47 48 47 48 48 48 49 50 52 54 56 57 57 58 57 57 56
80 79 80 81 85 89 88 88 89 85 84 86 80 76 85 89 88 89 85 83 87 85 84 78 69 70 70 67 67 60 59 62 64 63 57 59 63 61 60 60 60 62 62 57 58 58 52 45 39 37 34 29 22 19 20 25 28 31 36 39 42 42 41 40 38 36 35 35 37 37 38 38 38 39 41 43 45 45 45 46 47 47 46 46 45 44 45 47 49 52 55 56 56 56 57 57 61
81 76 77 81 81 81 88 90 83 83 86 85 82 79 86 90 83 83 84 84 86 87 85 78 71 62 63 66 64 65 64 62 62 62 59 59 61 60 61 59 58 58 58 57 58 55 48 42 38 35 29 23 20 21 26 30 33 35 36 39 40 39 37 35 34 35 34 36 40 41 41 40 41 42 43 44 44 45 46 46 45 44 43 41 40 41 42 44 45 48 52 55 56 56 56 56 58
79 74 74 80 80 78 87 86 75 84 88 79 77 79 85 85 74 78 84 81 84 89 84 78 69 56 66 70 64 75 72 66 66 62 60 60 61 61 61 58 57 57 58 59 57 51 45 40 36 30 24 20 22 27 31 33 36 39 41 44 44 42 39 37 37 37 37 39 41 43 42 42 42 44 43 43 44 45 45 43 42 41 41 41 41 42 42 43 43 45 48 52 54 55 55 55 56
73 74 76 76 75 77 83 78 72 79 82 78 77 81 85 78 70 77 85 85 87 90 84 79 67 54 73 77 68 79 75 70 69 64 63 59 60 60 60 58 56 57 58 58 53 48 43 38 33 26 22 22 27 30 32 36 40 45 48 50 49 47 45 44 44 42 41 40 42 43 43 43 44 43 42 44 45 44 43 43 43 43 42 43 44 44 43 42 41 42 45 48 50 52 53 54 56
68 70 73 73 73 74 78 80 79 75 76 81 80 84 88 76 73 81 86 89 87 86 84 80 70 59 73 80 77 81 75 72 68 66 65 59 58 57 59 60 56 56 56 55 49 46 41 36 30 22 22 25 30 32 34 40 47 51 52 52 50 48 47 46 46 45 44 42 43 43 44 44 44 43 44 46 45 44 45 46 44 42 41 42 42 42 42 39 38 38 42 46 48 50 52 52 53
68 72 76 76 76 74 74 74 71 72 77 80 74 78 89 87 83 84 83 86 85 81 80 78 69 60 69 81 81 80 75 72 68 65 64 61 61 59 58 58 56 54 54 52 48 45 38 33 27 21 23 27 31 34 39 46 51 53 52 50 47 46 46 46 47 46 46 45 44 44 44 44 44 45 46 47 46 46 47 45 42 41 40 41 42 43 42 40 38 37 40 46 48 50 52 52 50
69 80 84 79 78 75 72 65 62 71 76 78 76 70 80 91 85 82 79 81 86 79 78 75 63 59 65 76 79 78 77 74 70 66 63 64 64 62 59 58 57 55 55 53 49 44 36 32 25 20 24 28 33 39 45 50 51 52 51 48 46 46 46 46 45 45 46 47 46 45 44 43 44 44 46 47 46 48 47 43 43 42 42 47 50 49 45 41 37 35 36 43 48 50 50 46 41
69 81 81 76 76 70 66 63 64 72 74 79 83 71 72 82 79 79 76 76 83 77 76 70 60 62 62 69 78 78 77 76 73 68 65 65 64 63 60 61 60 58 57 53 50 44 36 32 24 20 25 30 37 43 47 49 51 52 49 46 45 44 44 43 41 43 46 47 47 46 45 44 43 43 46 47 48 48 44 43 44 42 45 53 56 54 48 40 36 33 31 37 45 47 46 40 37
68 81 80 78 75 67 64 64 67 69 69 76 82 77 75 76 74 75 72 73 79 75 74 69 61 63 59 65 78 79 77 77 75 71 71 70 67 66 64 64 63 60 57 52 49 43 37 33 24 20 25 32 38 43 46 48 51 51 47 43 42 41 40 40 38 41 45 47 47 46 46 45 44 45 48 50 49 44 41 44 43 41 45 52 55 54 49 40 37 37 32 32 38 41 41 39 41
67 81 81 79 73 66 62 60 63 62 64 73 74 72 73 74 72 71 68 67 74 77 71 69 69 63 54 53 62 73 76 76 76 76 79 76 71 71 70 66 63 61 56 51 48 43 39 34 25 21 25 32 37 41 44 47 50 49 45 41 40 40 40 39 37 37 40 45 48 48 47 46 47 48 50 50 45 40 41 43 40 40 46 50 53 54 51 45 45 48 41 32 32 34 36 40 44
71 81 81 77 71 65 62 58 60 59 63 73 69 64 69 72 70 69 69 63 66 75 69 68 77 72 59 48 51 66 74 76 77 80 82 79 74 75 73 67 64 61 56 51 48 45 41 36 27 21 25 31 35 39 43 46 48 46 43 40 40 40 42 42 40 36 33 35 40 44 45 46 47 47 47 44 39 38 40 39 39 45 50 51 52 54 55 54 51 52 50 41 36 35 37 44 48
78 79 78 74 69 64 64 62 58 56 58 69 69 63 66 72 73 69 71 66 59 69 71 72 79 75 64 55 55 61 70 77 78 80 78 73 74 75 72 68 64 59 54 50 47 46 43 39 30 22 25 31 34 38 41 45 45 44 42 40 39 40 43 44 44 41 35 32 31 30 31 33 34 35 36 35 34 36 37 38 44 50 53 53 53 54 57 59 57 56 60 57 52 49 47 50 55
81 75 75 71 68 65 63 60 57 55 53 63 69 65 62 67 71 67 71 68 58 64 69 70 74 71 65 61 61 60 65 73 74 77 75 70 70 70 66 63 60 55 52 50 46 47 45 41 33 24 25 31 34 36 40 43 43 44 42 41 39 39 43 44 45 44 42 42 39 30 23 24 25 26 27 30 33 34 38 43 49 53 54 55 54 55 56 60 64 63 67 69 64 62 59 58 61
78 72 73 67 62 62 61 57 56 54 50 55 64 65 59 59 60 60 67 61 60 71 72 73 73 68 69 67 64 60 60 64 67 71 75 76 71 66 63 59 56 52 51 49 45 47 47 42 35 27 24 29 34 36 39 41 42 43 42 41 38 38 41 42 43 43 44 49 49 42 33 30 30 29 27 29 33 37 43 48 51 53 53 54 52 53 54 59 66 64 68 72 67 63 62 64 64
73 68 67 62 57 58 58 56 54 51 50 51 57 63 60 61 57 57 64 58 68 81 73 72 65 60 67 66 65 61 57 60 67 71 74 78 75 70 67 59 53 52 52 49 45 46 48 44 37 29 25 27 33 36 36 39 41 42 42 40 37 38 40 40 40 41 46 52 53 50 44 39 36 35 33 33 37 41 45 47 50 52 51 52 51 53 56 61 67 67 68 68 64 63 64 67 66
66 64 56 52 56 57 54 53 54 53 52 51 52 59 61 63 58 59 68 63 75 81 67 59 50 48 56 59 64 62 57 57 63 71 73 74 75 74 72 65 57 55 54 50 47 48 48 46 37 29 26 26 30 35 35 36 38 40 42 40 36 36 38 38 39 41 47 55 55 51 48 43 41 42 39 38 39 42 45 46 48 49 49 51 54 59 64 67 68 72 73 66 65 68 70 69 66
59 61 53 48 52 52 51 50 54 56 54 51 51 54 55 58 55 56 63 61 66 70 64 57 48 45 45 49 58 61 60 55 54 62 67 69 69 70 74 71 63 60 58 52 50 50 48 46 38 30 27 26 28 32 35 35 36 39 40 38 35 35 37 38 41 43 48 56 56 52 51 48 47 47 44 44 44 46 47 45 45 47 49 56 60 61 66 70 66 71 74 68 66 67 68 68 67
55 57 56 53 51 49 50 48 52 57 57 54 51 52 51 54 55 52 56 59 61 62 63 59 51 48 44 44 49 55 59 54 51 54 57 62 62 66 72 71 66 63 61 56 55 55 49 44 39 33 28 26 28 30 33 35 35 37 38 37 35 34 36 39 44 45 48 55 57 55 55 53 50 49 48 48 50 52 49 45 47 49 53 61 63 61 66 67 65 69 70 66 67 67 64 66 72
53 53 52 51 50 49 48 46 49 53 59 58 49 50 51 52 57 56 57 59 60 64 65 58 52 49 45 43 44 50 56 53 52 55 56 59 60 62 66 71 69 64 62 58 57 58 52 45 40 35 30 28 30 31 31 34 34 36 37 35 35 34 36 43 47 47 48 53 56 55 55 57 53 51 51 49 52 53 52 56 58 56 58 62 64 66 66 63 65 68 67 66 65 70 66 64 72
50 49 49 50 48 48 45 45 48 48 56 59 52 51 50 51 56 58 59 57 57 65 69 62 53 48 44 42 44 49 54 54 52 56 60 62 67 68 64 69 69 67 67 61 57 58 55 49 43 37 32 29 31 34 33 33 34 36 36 34 36 35 37 45 50 49 49 51 55 54 55 59 56 55 55 54 57 56 55 60 60 59 61 64 64 65 64 61 64 64 66 68 64 70 67 66 71
46 45 46 47 46 46 45 44 46 46 51 56 54 52 49 49 52 56 57 54 55 63 70 66 51 44 45 42 42 46 52 54 51 53 58 62 70 72 66 67 65 64 66 62 59 60 58 53 47 41 35 31 32 36 36 33 34 38 38 35 38 38 40 47 51 49 49 51 52 54 58 63 63 61 59 57 58 57 57 56 56 60 61 63 61 59 62 60 60 60 60 63 66 70 65 68 74
42 42 42 43 42 43 43 42 43 44 48 50 51 51 49 48 49 54 57 54 54 57 64 64 45 38 46 44 40 43 49 51 49 50 54 58 62 62 63 64 62 61 61 61 61 62 61 57 53 48 41 35 32 35 38 35 34 40 40 38 39 41 42 48 51 50 49 49 48 50 57 65 69 65 59 57 56 56 59 56 59 63 58 61 61 57 62 59 56 57 56 57 63 70 67 68 71
38 38 38 40 40 40 41 39 41 46 47 46 47 48 48 50 50 50 54 54 54 56 59 58 44 35 41 46 43 41 46 48 47 49 50 51 51 52 55 57 58 58 57 59 61 61 62 59 57 55 48 40 34 33 38 38 36 41 42 40 40 41 43 47 50 50 49 48 45 45 50 60 68 65 61 59 55 56 59 56 59 61 56 58 59 55 58 57 53 55 59 57 57 65 71 68 64
37 35 34 36 37 40 41 38 39 46 48 47 48 48 49 54 50 46 51 53 53 57 58 54 49 42 38 44 49 46 45 45 44 45 45 46 46 48 51 50 52 55 54 57 61 62 63 61 59 60 55 46 38 33 38 41 39 41 44 42 41 40 43 48 50 49 50 51 47 43 45 54 62 64 61 58 55 55 56 55 57 60 57 54 55 56 59 59 56 58 62 59 57 61 66 64 58
35 34 32 34 36 38 40 38 37 41 47 49 50 48 48 51 48 45 51 53 53 58 60 56 55 51 41 41 50 50 47 42 39 39 42 44 44 47 52 48 46 53 51 50 56 60 64 62 58 60 57 51 44 36 36 42 43 42 43 44 43 40 42 50 52 50 53 54 49 43 43 48 55 59 57 56 56 56 56 56 58 58 56 54 54 56 60 61 57 56 54 54 61 62 61 59 52
31 33 32 33 35 37 38 38 37 36 40 45 48 48 46 47 46 46 49 52 54 55 58 58 59 59 46 39 47 52 49 44 38 37 39 42 42 45 53 50 44 47 47 44 49 56 60 59 56 58 56 52 48 39 35 39 42 41 41 43 44 41 42 48 51 51 53 54 48 44 42 44 50 52 52 54 57 57 56 57 58 58 57 56 55 54 55 56 53 46 44 46 53 58 61 58 48
29 32 32 32 33 37 39 38 37 36 35 39 45 46 45 45 44 44 47 52 53 54 57 57 61 64 50 38 43 48 50 50 45 40 38 40 41 42 49 52 45 42 43 42 46 51 55 55 55 56 55 52 49 43 37 37 40 41 40 42 43 43 42 44 48 49 51 52 47 43 40 41 45 48 48 50 53 56 56 58 60 55 55 56 53 55 56 57 56 44 41 41 43 54 61 56 45
27 29 32 31 32 36 39 38 36 35 34 37 41 44 45 43 41 41 44 50 51 53 60 59 61 64 55 45 42 43 48 51 50 47 42 39 41 42 44 48 45 40 41 41 43 46 48 49 50 52 53 52 49 45 40 37 39 40 39 40 42 44 43 42 45 46 47 47 45 41 37 38 41 43 45 45 50 56 57 63 64 54 53 54 51 58 61 60 61 50 42 38 40 52 53 44 36
27 26 30 31 31 34 38 37 34 34 34 36 38 41 43 41 38 38 39 46 50 54 60 61 61 61 57 50 42 40 43 44 44 46 45 41 40 42 43 45 45 41 38 38 41 42 43 43 43 46 50 51 48 45 42 40 40 40 39 39 40 43 42 41 42 44 44 41 43 42 35 33 36 39 41 39 44 52 57 65 67 59 57 56 52 60 62 58 58 54 45 37 38 48 47 36 29
30 26 27 30 31 32 36 35 31 31 34 35 36 38 40 39 36 35 37 43 49 53 56 57 60 59 58 53 42 38 41 41 39 39 42 44 43 42 42 44 45 42 39 37 39 41 42 42 41 41 45 47 44 43 44 41 39 40 39 38 40 42 40 39 38 41 43 40 42 45 37 32 33 36 37 37 40 45 56 65 67 62 58 55 52 56 60 58 56 51 44 39 41 46 47 38 33
31 28 26 27 29 29 31 32 28 27 31 34 34 36 36 35 35 35 38 43 46 51 54 55 60 61 58 54 43 37 38 40 40 39 37 41 44 44 42 42 43 43 41 39 38 39 40 41 40 38 41 45 42 40 42 39 36 38 38 36 37 40 37 35 35 38 43 44 44 45 41 36 33 34 35 37 40 43 51 59 62 61 56 54 52 52 58 57 53 49 40 36 42 48 49 44 38
30 29 27 26 26 26 26 29 27 24 29 32 31 33 33 32 34 35 38 43 46 49 52 54 59 59 55 51 44 38 37 39 42 41 37 36 41 45 43 41 42 43 42 40 37 36 37 38 39 37 39 45 42 38 37 33 31 34 35 34 35 37 35 33 34 38 44 47 47 46 44 43 39 36 36 38 42 43 46 53 60 61 54 53 53 50 53 52 49 49 42 34 39 48 49 46 42
28 28 27 25 24 24 23 24 25 22 27 32 30 30 32 32 33 33 36 41 45 46 48 51 53 52 50 50 47 42 39 40 43 42 39 36 37 42 44 42 40 40 39 38 36 35 36 36 37 37 38 42 41 38 36 30 28 31 32 34 36 37 34 33 34 39 44 44 47 50 47 47 45 41 39 40 42 42 43 48 55 57 50 50 53 47 47 51 48 43 40 37 41 48 49 47 47
26 26 26 26 23 21 20 20 21 20 22 27 29 28 30 31 31 32 33 36 40 41 43 47 49 48 49 50 50 47 41 41 41 41 41 37 35 37 40 41 40 38 35 37 37 35 35 36 35 34 34 38 39 38 38 32 27 29 32 34 37 39 35 33 35 39 42 40 42 49 49 48 47 43 41 40 41 41 41 45 49 53 51 51 53 48 47 52 47 39 40 39 37 44 51 50 49
27 27 26 26 23 20 18 17 17 17 17 21 25 26 28 29 30 31 32 33 36 38 40 45 48 48 47 45 46 47 43 39 38 41 42 39 36 35 35 36 38 36 33 35 36 33 33 34 34 31 27 31 35 35 39 38 32 31 33 35 37 40 38 35 35 37 39 38 39 45 47 45 43 42 40 38 39 39 39 43 48 52 55 53 51 49 52 55 50 43 42 37 32 39 48 48 43
28 29 29 26 23 20 17 15 15 15 16 19 22 24 25 26 27 29 31 33 34 34 37 43 47 46 45 42 41 44 44 40 37 38 40 40 37 34 33 33 34 33 31 31 32 30 29 30 32 31 24 24 29 32 36 39 35 31 31 34 35 38 40 36 33 33 34 34 38 43 45 43 41 40 38 33 33 36 37 40 45 49 52 52 50 50 53 54 52 48 42 37 36 40 44 42 37
28 29 30 26 22 20 17 14 14 15 17 19 21 26 28 25 26 28 30 34 36 35 35 37 40 42 43 41 40 42 43 43 42 39 39 39 38 36 34 33 32 29 27 27 29 29 29 28 30 32 25 20 23 27 31 34 33 28 24 26 26 28 32 29 26 27 27 27 32 38 42 42 39 38 36 31 28 32 34 36 41 47 48 49 50 50 51 51 52 50 44 38 38 40 41 39 35
27 26 27 25 22 20 18 14 13 13 16 19 20 26 30 26 25 27 27 31 35 36 34 34 36 38 40 38 37 38 40 42 45 47 44 39 39 37 34 33 30 26 24 25 28 30 30 28 28 30 27 20 19 22 26 28 28 26 22 21 21 20 22 23 24 25 24 23 25 29 34 35 34 34 36 32 26 28 32 33 39 47 48 47 48 49 50 52 51 49 46 40 37 38 38 37 35
25 24 23 22 22 22 19 16 13 12 14 17 19 20 24 26 25 26 26 28 31 31 32 35 37 37 37 35 34 35 35 36 40 46 44 39 40 38 33 32 31 28 27 25 26 28 28 27 25 26 27 22 18 19 21 22 23 23 21 20 20 19 19 21 25 27 26 25 23 24 28 30 29 29 35 35 28 26 29 30 35 44 48 47 45 44 47 50 49 47 47 42 35 34 35 36 34
24 23 22 21 21 21 21 18 15 13 12 16 18 18 22 25 23 24 26 26 28 28 29 32 35 36 34 33 33 33 32 32 36 41 38 35 39 37 32 32 32 32 30 26 25 25 26 27 25 23 25 24 20 18 18 19 20 20 19 19 19 19 19 21 24 27 27 28 27 25 26 29 27 26 32 35 31 28 28 27 30 38 46 48 45 41 40 45 50 49 46 41 34 32 34 35 33
23 22 23 23 21 19 19 19 15 13 15 16 17 18 23 25 21 22 25 24 26 27 27 28 30 32 32 31 33 33 31 31 36 40 34 31 36 36 33 33 34 34 31 28 27 26 26 27 26 24 24 24 22 18 17 17 18 19 19 17 18 18 19 19 21 23 23 25 28 27 23 24 24 22 28 35 33 31 32 31 30 33 40 45 47 43 37 40 47 47 43 41 36 31 33 34 33
22 22 23 23 20 17 16 16 14 15 18 16 14 16 22 27 23 20 22 23 24 25 25 26 26 29 30 30 32 33 32 31 34 38 33 30 34 38 37 36 36 36 34 32 30 28 27 26 26 26 24 24 23 19 17 17 17 18 19 17 17 17 17 17 17 18 17 17 20 20 14 14 16 16 24 31 32 31 31 32 31 31 34 38 42 42 39 38 42 44 43 43 39 32 31 33 33
20 22 23 21 18 15 15 14 14 19 21 15 12 13 17 24 23 20 21 22 22 22 23 25 26 28 29 30 32 32 31 30 30 34 33 30 35 40 41 38 38 38 35 33 32 30 28 26 25 25 26 26 24 20 18 17 17 17 18 18 17 17 16 15 14 14 14 11 12 12 9 8 10 12 16 21 27 32 32 30 27 26 27 29 33 36 38 40 41 42 44 44 42 36 32 32 32
21 22 21 21 19 15 18 19 16 18 18 13 12 12 13 16 16 17 20 21 20 19 21 25 26 27 28 29 31 31 31 31 30 32 31 29 32 37 39 37 37 39 36 32 31 29 25 22 21 22 24 26 25 22 18 17 17 16 17 17 17 17 15 14 13 13 13 12 10 9 7 6 7 10 12 12 18 28 33 34 32 30 28 27 30 33 36 39 38 40 44 44 41 39 36 33 33
21 21 18 20 20 18 21 22 18 17 16 12 12 12 12 13 12 14 17 18 20 20 20 24 25 25 26 27 28 29 30 29 28 30 30 28 30 33 34 34 35 37 35 32 31 30 26 20 17 17 19 22 24 22 18 16 16 15 16 16 16 16 15 13 13 11 11 11 10 9 8 7 6 8 10 10 11 17 26 35 39 39 37 32 30 32 34 35 35 38 43 43 39 38 39 36 33
20 19 17 18 17 16 18 18 17 16 14 11 11 11 11 12 12 13 14 14 17 19 21 23 23 22 24 26 26 26 28 28 28 29 31 29 28 29 30 32 34 33 32 30 30 32 31 23 15 13 15 18 20 21 19 15 14 13 14 15 14 14 13 13 11 10 10 10 10 9 8 8 7 7 9 10 10 11 18 28 33 35 36 34 32 32 32 31 31 33 36 38 37 34 35 36 34
18 18 16 16 15 13 13 13 13 12 14 13 11 10 9 10 11 12 13 13 13 16 19 21 21 22 24 26 26 26 27 27 27 28 31 31 29 28 30 32 31 31 30 30 30 32 32 29 20 13 13 16 17 19 18 14 13 13 13 14 13 13 13 12 11 10 9 9 9 10 9 8 7 8 9 9 9 10 13 17 23 26 29 31 32 32 31 30 30 30 30 32 37 34 31 33 34
17 17 16 15 15 12 12 14 12 12 19 18 12 9 9 8 9 10 11 12 11 13 17 19 20 21 23 26 27 26 26 26 25 27 30 33 30 27 29 30 30 30 31 30 32 32 31 32 26 16 13 15 16 17 17 14 12 12 13 13 12 12 12 12 11 10 9 9 9 9 10 9 8 9 10 9 9 11 12 12 15 20 22 25 29 31 31 30 29 30 28 28 33 34 30 30 32
15 15 15 14 14 12 13 17 18 18 21 19 12 11 10 9 9 9 9 10 10 11 14 17 19 21 23 24 25 25 24 24 25 27 29 31 29 26 27 29 28 29 30 31 32 33 33 33 31 22 14 13 15 15 16 14 12 11 13 13 12 12 13 12 12 11 10 10 10 9 10 9 8 10 11 11 11 12 13 14 14 16 17 17 19 22 26 26 25 27 28 28 30 31 29 28 29
14 15 15 14 14 12 11 17 21 23 23 18 12 12 10 10 10 8 8 9 9 11 12 13 18 23 23 22 23 25 25 25 27 28 28 27 28 27 26 27 28 29 32 33 33 34 34 34 34 29 18 12 13 15 14 14 12 11 12 12 13 13 13 14 13 13 13 12 11 10 9 9 8 9 11 12 12 12 14 15 15 16 16 15 13 14 17 19 19 20 22 24 26 27 27 28 29
15 15 14 14 13 12 12 14 16 21 25 22 16 14 11 9 10 9 9 9 9 10 11 11 14 20 23 23 23 27 28 26 27 27 25 24 26 26 26 27 28 30 34 35 34 33 34 34 35 34 25 16 14 15 14 14 12 11 11 12 13 14 14 14 14 14 14 13 12 11 9 8 7 7 10 11 12 13 13 14 16 17 18 19 18 16 15 15 15 15 15 17 20 21 22 26 28
16 15 14 13 12 11 11 13 12 15 24 26 23 21 15 9 10 10 9 9 8 9 10 11 12 15 21 23 23 25 26 23 23 24 23 24 25 26 26 28 29 30 33 34 33 33 33 34 35 36 32 22 14 13 13 13 12 11 10 11 12 13 14 14 14 14 14 14 14 12 9 7 6 7 9 11 11 12 13 14 15 16 17 19 19 19 18 16 15 15 15 15 16 16 17 20 24
16 15 13 12 12 11 12 16 14 10 16 21 24 26 18 10 12 11 9 10 9 9 10 11 12 13 18 23 24 23 22 21 21 23 24 24 25 26 26 27 28 27 28 29 29 31 31 32 33 35 35 27 17 12 11 11 11 10 10 10 11 12 13 13 14 14 14 15 14 13 10 7 6 6 8 10 11 11 12 13 14 15 16 16 17 18 18 17 17 17 17 16 15 14 14 15 18
Wind_Speed
6 5 5 5 4 4 4 5 4 3 4 7 6 2 2 5 8 10 11 11 11 11 11 9 11 19 22 20 20 20 22 23 23 23 26 31 32 30 31 32 33 32 31 31 31 31 30 29 27 25 24 22 21 19 18 16 15 15 14 15 15 15 16 17 17 16 15 15 14 14 15 15 14 14 13 12 12 11 11 10 10 10 10 10 11 11 11 11 11 11 11 10 10 10 12 12 12
5 5 5 5 5 5 4 4 4 4 5 7 5 1 3 8 12 12 13 16 17 14 14 12 12 18 21 19 18 18 21 21 16 18 26 32 32 31 31 32 32 31 31 31 31 30 30 28 26 24 23 21 20 18 17 16 15 14 14 15 15 16 17 17 16 15 15 14 14 14 14 14 13 13 12 12 12 11 11 11 11 11 12 12 13 13 12 12 12 12 11 11 10 11 11 13 13
4 4 5 5 5 5 4 4 4 6 6 6 3 2 5 8 12 12 14 20 19 14 17 16 14 15 17 19 18 16 19 19 14 18 27 30 31 32 32 32 31 31 31 31 31 30 29 27 25 23 21 20 19 17 16 15 14 15 15 15 17 17 18 17 15 14 14 14 14 14 13 13 13 12 12 12 11 11 11 11 12 13 13 14 13 13 12 12 12 12 12 12 11 11 11 13 13
3 3 4 4 5 5 5 5 6 7 7 5 2 4 7 10 11 10 14 21 18 11 12 12 14 12 11 17 18 14 17 16 14 19 26 29 30 32 32 32 31 31 30 30 30 29 28 26 24 22 21 19 17 16 15 15 15 16 17 17 18 18 17 16 15 14 13 13 13 13 13 13 12 12 12 11 11 11 12 12 13 14 14 14 13 12 12 12 12 13 13 12 12 11 11 12 13
4 4 4 5 6 6 6 6 6 7 5 5 2 7 11 13 11 10 14 18 16 11 9 9 12 13 11 14 14 12 15 17 20 21 25 30 30 31 33 32 32 31 30 30 30 28 27 25 23 22 20 18 16 15 15 17 18 18 19 19 18 17 16 15 14 14 13 13 13 13 13 13 12 12 12 12 12 12 13 14 14 14 14 14 13 12 12 12 12 13 13 12 12 12 11 11 12
4 4 5 6 7 7 6 7 8 7 4 4 1 10 15 16 14 12 13 14 14 11 7 7 11 15 16 16 13 13 16 19 24 24 25 32 31 31 32 32 31 31 31 30 29 27 25 23 22 21 19 17 16 16 18 19 20 19 19 18 18 16 15 14 14 14 13 13 13 13 13 13 13 13 13 13 13 14 14 15 15 15 14 14 14 13 13 13 13 14 13 13 12 12 12 11 12
3 4 4 6 7 6 9 10 10 9 6 3 5 11 16 18 16 14 14 15 15 12 7 7 9 16 22 21 20 19 17 17 21 24 26 30 31 31 31 31 31 31 31 29 28 27 24 22 21 20 18 17 17 19 21 21 21 20 19 18 17 16 15 15 14 14 13 13 13 14 14 14 14 14 14 15 15 15 16 16 16 16 15 15 15 14 14 14 14 14 14 13 12 12 12 12 12
3 4 5 7 8 8 12 12 10 9 6 3 9 11 16 16 14 13 16 17 16 13 8 10 11 17 24 19 22 22 18 18 20 23 27 29 30 30 31 30 31 31 30 29 27 26 24 22 20 19 18 18 20 21 22 21 21 20 19 18 17 16 15 15 14 14 14 14 14 14 14 14 14 15 15 16 16 16 17 17 16 16 15 15 15 15 15 15 15 14 13 12 12 12 12 12 12
2 3 5 7 9 11 12 13 13 9 6 4 9 11 16 15 12 13 16 16 15 14 8 11 12 14 22 19 20 22 20 21 22 24 27 28 29 29 30 30 30 31 30 29 27 25 23 22 20 19 19 20 21 22 22 22 21 20 19 18 17 16 16 16 15 14 14 14 14 14 14 15 15 15 16 16 17 17 17 17 16 16 15 15 15 15 14 14 14 14 13 12 12 12 12 12 11
1 1 5 7 10 12 12 14 15 8 3 5 8 11 16 13 12 15 17 17 15 14 11 11 11 12 21 22 21 22 21 23 23 26 27 27 28 28 29 29 28 29 29 28 27 25 23 22 19 19 20 21 22 22 22 22 20 19 18 18 18 18 17 17 16 15 15 14 15 15 15 15 16 16 16 17 17 17 17 16 15 15 15 15 15 14 14 14 14 13 13 12 12 12 12 11 11
2 2 5 8 10 13 14 12 10 5 4 9 9 9 13 11 11 17 18 19 15 13 12 11 12 16 23 22 22 22 21 23 23 26 28 27 27 27 28 28 28 27 27 28 26 24 22 21 19 19 21 22 23 23 22 21 20 19 19 19 19 19 19 18 17 16 16 15 15 15 16 16 16 16 17 17 16 16 15 15 15 16 16 16 16 15 14 14 14 13 13 13 13 13 12 12 11
3 3 5 8 10 13 14 9 10 7 4 10 12 10 11 11 10 15 16 17 15 12 12 10 14 20 22 23 24 23 23 24 24 25 27 26 25 25 27 27 27 27 27 27 25 24 22 20 19 20 22 22 23 23 22 20 19 19 20 20 20 20 19 18 17 17 16 16 16 16 16 16 16 16 16 16 15 15 15 15 15 16 17 16 16 15 15 14 14 14 13 13 13 13 13 12 12
3 4 5 8 11 12 11 9 11 5 3 8 13 10 11 12 11 13 14 15 14 13 12 11 16 18 18 24 25 24 25 25 25 26 27 26 26 25 26 27 27 27 26 26 24 22 21 19 19 21 22 23 23 23 22 20 19 20 20 20 20 19 18 18 17 17 17 17 17 17 17 16 16 16 15 15 15 15 15 15 15 15 16 15 15 15 14 14 14 14 14 14 14 13 12 12 12
3 5 7 11 13 12 10 9 8 1 7 13 15 10 11 11 11 11 11 15 13 12 13 11 14 15 18 25 27 27 26 26 26 26 26 25 25 26 26 27 27 26 26 25 23 21 20 19 18 20 22 23 23 23 22 20 20 21 20 20 19 19 19 18 17 17 17 18 18 17 17 16 16 15 15 15 14 14 15 15 15 15 14 14 14 14 14 15 16 16 16 15 14 13 12 12 13
3 4 8 12 13 10 7 8 7 5 5 16 14 9 12 11 10 9 8 11 13 12 13 12 10 11 15 19 23 29 28 27 27 26 25 25 25 25 26 27 26 26 26 24 22 21 20 18 17 19 21 22 22 22 21 21 21 21 20 19 19 19 19 19 18 17 17 17 17 17 16 15 15 15 15 14 14 14 15 14 14 14 13 13 14 14 14 15 16 16 16 15 14 14 13 13 12
2 1 10 14 13 10 6 9 11 7 3 13 13 9 12 12 7 7 6 6 11 14 12 11 10 9 12 13 19 27 28 28 28 26 25 26 26 25 26 26 26 26 25 25 23 21 20 18 17 18 20 21 21 21 21 21 21 21 19 19 19 19 19 19 18 18 17 17 16 16 15 14 14 14 14 14 14 14 14 14 14 13 13 13 13 13 14 15 15 15 15 15 14 14 14 13 12
1 4 12 16 15 11 5 7 8 3 7 8 12 9 10 13 7 6 7 4 9 15 12 10 10 10 12 14 19 24 27 29 29 28 27 27 28 27 26 26 26 27 26 25 23 21 20 18 17 17 19 20 21 21 21 22 21 20 19 18 18 18 18 18 18 17 17 17 16 15 15 14 14 14 14 14 14 14 14 13 13 12 12 12 12 12 13 14 13 14 14 13 13 13 12 12 12
9 11 14 17 16 11 5 3 3 4 5 6 9 8 6 11 11 10 11 8 10 14 12 10 10 12 14 16 20 23 26 29 29 29 28 27 28 28 27 27 26 26 26 26 24 21 20 19 17 17 19 20 20 20 20 21 21 19 18 18 17 17 17 17 16 16 16 15 15 15 15 15 14 14 14 14 14 14 14 13 11 11 11 11 10 11 11 12 12 12 12 11 11 11 11 11 11
16 15 17 17 11 7 6 3 4 5 7 8 7 6 5 9 10 9 12 11 12 13 11 11 12 16 16 17 21 23 25 28 28 28 28 26 27 27 27 27 26 26 26 25 24 22 21 19 18 17 18 19 19 19 20 20 19 18 17 17 17 17 16 15 15 15 14 13 14 14 14 14 14 13 13 14 14 14 13 12 11 10 10 9 9 9 9 10 10 11 11 10 9 10 10 10 10
18 16 19 17 8 6 6 5 6 4 8 11 9 7 8 13 9 7 9 7 13 16 14 14 15 17 18 19 21 22 24 26 28 27 26 26 25 25 25 26 25 25 25 24 24 23 22 20 18 17 17 18 18 18 19 19 18 18 17 16 16 16 15 14 14 14 13 13 13 14 14 14 13 13 13 13 13 12 12 10 10 9 9 8 8 8 8 9 9 9 10 9 8 9 9 9 9
17 18 16 11 9 10 7 6 4 3 8 10 10 12 14 16 9 8 11 8 15 18 15 14 12 14 18 19 21 23 24 25 28 28 26 25 25 25 23 23 23 24 24 23 23 23 22 21 19 18 17 17 17 17 17 17 17 17 17 16 16 16 14 14 13 13 13 13 13 14 14 14 13 12 12 12 11 11 10 9 9 8 8 7 7 7 6 7 8 8 9 8 8 8 7 8 8
15 19 13 6 12 13 8 7 7 5 6 9 9 10 12 15 11 10 13 10 12 14 13 12 8 10 14 15 21 25 26 25 25 27 26 25 25 25 23 23 23 23 23 22 22 22 21 21 19 18 17 17 16 16 16 16 16 16 16 16 16 15 14 13 12 12 13 13 13 13 12 12 12 12 11 11 10 9 9 9 8 7 6 6 6 6 5 6 7 8 8 8 8 8 7 7 8
16 18 15 12 17 16 11 9 11 8 3 4 8 8 7 15 14 9 8 7 10 11 12 11 8 9 10 13 17 22 26 24 23 23 23 24 24 25 24 23 23 24 23 21 21 22 21 20 20 18 18 17 17 16 16 16 15 16 16 16 16 15 13 12 11 10 12 13 13 12 11 11 11 11 11 10 10 9 9 9 8 7 6 5 5 6 6 5 6 7 7 7 7 7 7 7 7
20 18 16 17 20 18 14 10 12 10 6 4 5 9 9 13 14 10 8 9 11 11 13 10 8 9 11 13 14 18 23 22 23 23 21 21 21 22 22 21 22 22 22 21 22 21 20 20 19 19 18 17 17 16 16 15 15 16 16 16 15 14 13 11 10 10 10 12 12 12 11 11 11 11 11 11 10 9 9 9 7 6 5 5 6 6 5 5 6 7 7 7 7 7 7 6 6
22 21 17 19 21 18 14 10 12 14 12 8 6 8 10 11 12 12 13 15 12 13 16 11 8 10 11 13 14 17 21 22 23 24 23 22 21 21 21 20 21 22 22 21 21 21 20 20 19 19 19 17 17 16 15 16 16 16 16 16 15 14 13 11 10 10 10 10 11 11 11 11 10 11 11 10 10 9 9 8 7 6 5 6 6 6 6 5 5 6 7 6 6 6 6 5 6
22 21 18 20 23 18 16 11 9 13 16 12 10 9 8 10 11 11 14 15 12 15 19 13 8 12 13 13 16 17 20 24 23 24 25 24 23 24 21 20 21 21 21 20 21 22 20 20 20 19 19 18 17 17 16 16 16 16 16 15 15 14 13 12 11 10 10 10 10 10 11 10 9 9 9 9 8 8 8 8 7 6 5 5 5 7 6 5 5 6 6 5 5 5 5 5 7
20 21 19 20 23 21 19 14 9 10 14 12 10 10 9 12 13 14 17 14 12 15 16 13 9 11 14 13 15 16 19 22 22 22 25 25 25 24 22 21 20 19 19 20 20 22 21 19 20 20 19 19 18 17 17 17 17 16 16 15 14 13 12 12 12 11 10 9 9 9 10 9 9 8 8 9 8 8 7 7 7 5 6 6 5 7 5 5 6 5 4 4 4 4 4 5 8
18 20 20 20 23 23 20 16 13 10 12 12 10 11 11 12 16 18 19 16 15 15 13 13 11 10 12 13 13 14 17 19 19 21 23 23 23 23 23 21 20 19 18 19 19 21 21 20 21 20 20 20 18 18 18 17 17 16 15 15 14 13 12 12 11 11 10 9 8 8 9 9 8 8 8 8 8 7 6 6 7 5 6 6 5 5 5 5 6 3 4 4 3 4 4 6 8
21 20 22 21 22 23 21 18 16 13 12 12 10 14 15 14 17 17 21 20 17 16 14 14 13 10 11 13 13 12 15 18 18 20 20 20 20 21 22 19 19 19 18 19 20 20 21 21 21 21 20 20 19 19 19 18 18 17 15 15 14 13 12 11 11 11 10 9 8 7 9 8 7 7 7 7 7 7 5 5 6 5 5 6 5 5 5 5 5 4 4 3 3 5 6 6 8
23 22 21 21 22 24 23 21 20 18 16 13 13 18 19 17 15 16 21 21 20 19 17 16 14 11 11 14 14 14 16 17 17 18 19 19 19 19 20 19 18 19 18 19 20 20 21 21 21 21 20 20 20 20 19 18 18 17 16 15 14 14 13 11 11 11 10 10 9 7 7 8 7 6 7 6 6 5 5 4 4 5 5 6 6 5 5 4 4 4 3 3 5 6 6 6 8
19 21 22 23 24 23 23 23 22 23 22 17 16 19 19 16 16 18 20 22 23 22 19 17 16 14 13 13 14 15 16 16 17 17 18 20 20 19 20 20 18 19 19 18 19 20 20 21 21 21 21 20 20 20 20 19 17 17 16 16 15 14 13 12 12 11 10 10 10 8 7 7 6 6 7 7 6 6 5 4 4 4 4 5 5 5 5 5 4 4 3 4 6 6 6 6 7
17 20 23 26 25 21 21 24 24 25 25 21 20 22 20 17 17 18 20 25 24 21 19 18 18 17 15 13 13 14 15 16 17 18 18 20 20 20 21 21 19 19 19 18 19 20 20 21 20 21 21 21 21 20 20 19 18 18 17 16 16 15 14 13 12 11 11 11 10 9 8 7 7 7 7 7 6 6 5 4 3 3 4 4 5 5 4 5 5 5 4 5 5 6 5 5 7
21 22 23 23 25 23 21 23 24 25 25 24 25 24 21 19 19 21 23 25 25 23 23 22 20 20 17 15 13 13 15 16 18 19 18 19 20 20 20 21 20 18 19 19 19 20 20 20 21 21 21 20 20 20 20 20 19 18 18 17 16 16 15 14 14 12 12 12 11 10 9 8 8 7 7 7 6 5 4 3 2 3 3 3 5 4 3 4 5 4 4 4 5 5 5 5 5
24 25 26 22 22 25 24 23 23 26 27 26 28 25 22 21 18 23 27 25 26 27 28 26 23 21 19 16 15 15 15 16 17 18 18 19 20 20 19 20 20 19 19 19 19 19 20 20 20 20 21 20 20 21 21 20 20 19 19 18 17 16 16 15 15 14 13 12 12 11 10 10 9 8 7 6 6 5 4 3 2 2 2 3 4 4 2 4 4 4 4 4 5 5 5 6 5
24 24 26 24 22 24 26 25 22 26 32 29 29 27 23 22 18 21 30 29 27 30 29 27 25 22 20 17 16 17 17 16 15 15 16 18 19 20 20 20 20 20 19 19 20 20 20 21 20 21 21 21 21 21 22 21 21 20 19 19 18 18 17 17 16 14 13 13 13 12 11 10 9 9 8 7 6 5 5 4 3 2 2 3 3 3 2 3 4 3 3 4 5 5 4 4 4
23 23 25 25 25 25 26 27 21 23 34 33 31 30 22 20 18 19 30 32 28 31 30 27 26 24 22 18 16 17 18 17 14 14 15 16 19 20 20 21 21 21 20 20 20 21 21 21 21 21 22 22 22 22 23 23 22 21 21 20 19 19 18 18 17 15 14 14 13 12 11 10 10 9 8 7 6 5 5 4 3 2 2 2 3 2 2 3 3 3 3 4 4 4 4 4 4
24 24 24 25 27 26 25 29 26 23 34 37 31 30 24 20 21 20 27 29 28 31 31 29 29 26 23 21 18 18 19 18 16 16 16 15 18 21 21 21 22 22 22 21 21 22 22 22 21 21 22 23 23 22 23 23 23 22 21 20 19 19 18 18 17 16 15 14 13 12 11 10 9 9 8 7 6 5 5 4 3 2 1 2 1 1 2 3 3 3 2 3 4 4 4 3 4
28 28 26 24 25 26 24 26 26 23 30 39 33 30 27 23 24 25 27 28 28 29 30 30 29 26 24 23 21 19 18 19 20 19 18 17 18 20 22 22 23 23 23 22 22 22 22 22 22 21 21 23 21 20 21 21 21 20 19 19 18 18 18 18 17 16 15 14 13 12 11 10 9 8 8 8 7 6 6 5 4 2 1 1 1 1 2 2 3 3 3 3 4 3 3 3 5
30 30 29 28 25 24 25 24 25 24 26 34 34 31 29 25 25 28 29 29 30 30 29 29 29 27 26 24 22 21 20 20 23 22 20 20 18 19 21 22 23 23 23 23 22 22 22 22 23 23 22 22 21 19 20 20 19 19 19 18 18 18 18 18 18 16 15 14 13 12 11 11 10 9 8 8 8 7 7 6 5 3 2 1 1 2 2 2 3 4 3 3 3 3 3 5 6
31 32 32 33 28 24 24 24 25 25 24 27 29 30 29 25 25 29 30 30 31 31 30 29 29 29 25 22 21 21 21 20 22 24 23 22 20 20 21 22 24 24 23 23 23 23 24 23 23 23 22 22 22 19 19 19 19 19 19 20 20 19 19 19 19 18 17 15 14 13 12 11 10 9 9 8 8 8 7 7 6 4 3 2 1 1 2 2 3 3 4 3 3 3 3 6 6
33 33 32 32 31 27 24 23 23 24 25 26 26 26 28 26 25 28 30 32 33 30 27 29 31 30 26 22 22 21 20 18 18 23 26 25 23 22 21 21 22 24 23 22 22 21 22 23 23 23 22 22 22 21 19 19 20 21 21 22 23 23 23 23 22 19 18 16 14 13 12 12 10 10 10 9 9 9 8 8 7 6 4 2 1 0 1 2 3 3 3 3 3 3 3 6 8
34 34 34 32 30 29 27 23 22 23 24 30 29 19 21 28 28 28 29 32 34 30 26 28 30 31 30 26 24 22 20 17 15 18 23 25 25 24 22 21 21 22 21 20 20 21 21 22 22 22 22 22 23 22 21 20 21 22 23 23 24 24 23 22 20 17 16 14 13 12 12 12 11 10 10 10 10 10 10 9 8 6 5 3 1 0 1 1 2 2 2 3 3 3 3 5 8
33 33 33 32 31 30 29 26 22 20 19 30 33 18 15 27 32 31 31 32 33 31 27 30 32 33 34 30 26 24 21 20 18 16 20 24 26 25 23 22 21 19 18 19 20 21 22 23 23 23 22 22 23 23 23 22 22 22 23 23 22 21 20 18 16 16 15 14 14 14 13 12 11 10 10 10 10 11 11 11 9 7 6 4 3 1 1 0 0 1 1 2 2 2 3 5 6
32 29 28 30 32 32 31 28 24 22 18 23 36 29 18 24 33 34 36 36 36 36 34 36 37 37 36 31 27 26 22 21 21 19 20 24 26 26 24 20 18 16 16 19 20 21 22 22 22 22 22 22 22 23 24 23 22 22 23 23 22 21 19 18 17 16 16 15 15 15 14 13 12 11 11 10 11 12 12 11 11 9 7 6 4 3 2 1 1 0 1 1 1 2 3 5 5
31 25 23 27 30 31 31 30 26 25 21 16 32 36 19 16 29 32 35 39 39 40 40 40 42 40 37 33 30 28 24 21 21 20 19 22 25 25 22 19 17 17 17 17 19 19 20 21 21 22 22 22 22 23 24 24 22 21 22 23 22 21 20 19 20 19 17 16 15 15 14 14 14 12 11 11 11 12 12 12 11 10 8 7 6 4 3 2 2 1 1 1 2 2 2 4 4
30 24 23 24 25 28 30 29 29 27 19 13 22 34 20 11 25 31 34 40 39 37 37 38 41 42 39 36 33 32 27 22 21 20 19 20 24 24 22 21 21 20 18 16 18 19 20 22 22 22 22 23 22 23 24 24 23 22 22 22 22 21 21 21 22 21 20 17 16 16 14 14 14 13 12 12 11 11 12 12 12 10 9 9 7 6 4 4 3 3 2 1 2 2 2 2 3
28 25 26 25 23 27 28 30 31 22 13 17 21 27 24 13 23 34 37 40 37 34 36 36 38 42 42 39 37 35 29 23 22 20 20 20 22 24 24 25 23 21 20 19 21 21 22 23 23 22 22 22 23 23 24 24 24 24 23 22 21 21 22 22 22 22 21 19 17 16 14 13 14 14 13 13 12 12 13 13 12 12 11 10 9 7 6 5 4 4 3 2 2 3 2 1 1
29 27 28 25 21 25 25 28 29 13 7 22 26 23 21 14 20 34 39 39 34 30 34 39 38 39 42 41 39 36 29 24 23 21 21 22 24 25 27 27 25 24 23 22 21 22 23 23 23 22 22 23 23 23 24 25 25 24 24 23 22 22 22 22 21 21 20 18 17 16 14 14 14 14 13 12 12 12 12 12 12 12 11 10 9 9 7 6 5 4 4 3 2 3 4 2 1
32 29 30 22 11 14 15 14 16 9 9 23 26 22 21 17 19 27 36 39 35 29 29 39 42 38 41 43 39 35 31 25 24 23 22 23 26 26 27 27 26 25 25 22 20 20 21 21 21 22 22 23 23 23 23 25 26 25 25 24 23 23 23 22 21 20 20 19 17 16 15 14 13 13 12 10 11 12 12 11 11 10 10 10 10 10 9 7 6 5 5 4 3 3 4 4 2
36 34 33 24 8 5 7 5 5 7 14 25 26 20 20 23 23 21 27 33 31 29 27 35 43 41 40 43 39 34 32 28 25 25 24 23 25 27 26 25 24 24 24 22 20 20 19 19 20 21 21 22 23 23 23 24 25 26 25 24 23 23 23 22 22 21 20 20 18 17 16 14 12 11 11 10 11 13 12 11 11 10 10 10 10 10 10 8 7 7 6 5 4 4 5 5 4
37 36 32 29 19 8 5 5 5 4 9 20 25 20 17 20 24 23 23 27 27 28 29 33 39 43 41 39 39 36 34 31 28 28 26 23 24 25 24 23 23 24 24 23 21 22 21 20 20 22 22 22 23 23 23 24 24 25 26 25 24 24 23 23 22 21 21 20 19 18 17 14 12 11 12 13 13 13 13 13 12 11 10 10 10 10 10 9 8 7 7 6 6 5 6 6 5
35 35 31 33 32 20 7 6 11 8 4 12 23 27 24 19 21 25 26 28 26 24 28 33 34 40 42 40 40 39 37 34 30 28 27 25 25 25 24 23 24 25 25 23 21 20 20 20 20 22 24 24 23 24 24 23 24 25 26 25 25 25 24 23 23 22 21 20 20 19 17 15 13 12 13 14 14 13 12 13 13 12 11 10 10 10 10 9 8 7 7 7 6 6 6 7 7
32 37 37 35 35 28 12 7 12 11 4 9 20 27 30 26 23 25 28 31 30 25 26 32 34 38 43 44 43 39 37 35 30 26 24 25 27 27 25 24 25 25 24 22 21 20 19 18 18 21 24 25 25 24 24 23 24 26 27 26 26 26 25 24 22 21 20 20 20 20 19 17 15 14 14 14 13 13 12 12 12 12 11 10 10 10 9 9 8 7 7 7 7 6 6 7 8
31 40 39 30 28 30 20 7 9 9 4 9 21 25 27 27 26 28 30 32 34 33 30 29 33 42 45 45 44 41 39 36 30 25 23 25 28 28 27 26 24 24 22 21 23 23 21 18 18 20 24 26 25 25 24 24 25 27 28 27 27 26 25 23 21 20 19 20 20 20 19 19 17 16 15 14 13 13 11 10 10 11 11 9 9 9 10 10 8 7 7 7 7 7 7 7 8
30 35 37 30 23 25 24 12 5 7 4 6 19 25 26 29 33 34 33 33 34 37 37 32 32 43 48 44 43 43 40 35 31 27 25 26 28 28 27 26 25 24 24 25 25 25 23 19 18 19 22 24 25 25 25 25 26 27 28 27 26 26 25 24 22 20 20 21 20 19 19 19 18 17 17 16 14 12 11 10 9 9 8 7 6 6 8 9 9 8 8 8 8 7 7 7 8
33 30 34 37 28 21 26 22 11 7 4 4 11 15 19 30 37 35 32 33 34 35 39 38 35 39 46 45 44 45 41 34 31 27 24 27 28 25 24 25 26 25 25 26 26 24 23 19 18 19 21 24 26 27 27 27 27 27 27 28 27 26 25 24 23 22 21 21 19 19 19 19 18 18 18 17 15 13 11 10 9 9 8 7 6 5 5 6 7 8 8 8 9 9 8 7 8
40 34 34 38 32 23 24 26 23 15 4 2 6 5 13 24 30 33 32 31 34 34 34 38 39 38 40 42 42 43 38 31 27 23 22 27 27 23 21 23 25 24 24 26 25 23 22 20 19 19 21 24 26 27 28 27 27 27 28 28 28 27 26 24 24 23 22 21 20 20 19 19 19 20 19 18 17 15 13 11 10 9 8 8 7 6 5 5 5 6 7 8 8 9 8 8 9
44 38 33 37 36 27 18 15 25 27 14 7 5 4 12 19 20 28 31 28 32 34 31 33 39 39 38 38 39 40 38 31 26 23 22 25 25 23 23 23 25 25 24 25 24 23 23 22 20 20 21 23 24 25 27 27 27 27 27 28 28 27 27 26 25 25 23 22 22 21 20 20 20 20 20 19 18 16 15 14 13 11 10 9 8 8 7 6 5 6 7 8 8 8 8 9 9
Wind_Direction
55 61 61 67 64 61 41 11 340 321 302 295 319 293 209 152 135 122 129 121 104 99 102 111 122 138 150 149 151 147 142 149 147 152 152 145 147 146 145 145 147 148 146 145 142 140 138 136 136 138 139 138 136 134 135 136 137 134 132 132 134 137 136 132 129 126 122 120 119 115 111 110 110 111 111 112 113 112 111 107 104 100 96 95 95 95 94 95 96 96 93 90 87 79 72 72 79
66 65 64 68 61 50 40 16 352 336 311 303 321 234 156 147 142 129 126 110 97 97 97 108 129 144 156 153 151 146 144 150 151 158 151 145 146 145 146 145 148 148 146 145 143 142 139 137 138 140 140 138 135 134 136 136 134 132 132 134 138 138 134 130 128 126 124 121 117 113 111 111 111 113 114 114 113 110 108 104 100 99 98 98 98 98 96 97 97 95 94 94 92 84 75 72 76
73 65 66 65 47 31 19 360 335 322 308 308 310 193 146 145 147 139 129 109 103 107 104 115 137 149 159 156 155 153 152 155 160 166 152 146 148 146 146 146 148 148 147 147 145 143 139 138 141 141 139 137 135 135 136 134 132 131 134 138 137 134 130 129 129 129 126 120 115 113 112 112 112 114 115 114 113 110 107 104 101 100 101 100 101 100 98 97 96 96 96 96 94 88 80 74 75
70 69 62 48 22 6 347 325 322 313 306 323 323 167 151 152 152 143 130 116 116 129 123 133 138 137 162 162 159 163 164 160 166 173 153 145 149 146 147 147 149 149 148 148 145 143 140 141 143 141 138 136 134 135 134 131 130 133 136 135 132 129 128 130 131 130 125 120 116 116 114 114 115 115 114 113 113 109 107 105 104 103 102 104 104 102 98 96 95 95 94 93 91 89 84 77 75
57 69 41 25 7 351 332 323 323 307 312 347 37 140 152 160 159 148 134 126 132 143 141 154 144 139 158 156 160 168 160 152 156 167 152 145 150 147 147 148 150 150 149 148 145 144 143 143 143 140 137 135 134 133 132 130 131 133 133 130 128 128 131 133 134 130 124 121 118 117 115 115 114 114 114 113 111 108 107 106 104 103 103 103 101 98 94 92 92 90 89 88 87 85 84 79 75
50 59 39 28 9 344 329 331 328 314 306 314 159 143 152 153 148 145 136 134 138 132 137 151 142 141 136 127 136 145 140 146 153 159 152 145 150 149 147 149 150 151 149 148 146 145 145 145 143 139 136 134 134 133 131 130 131 130 128 128 129 131 135 136 133 128 125 121 119 116 114 114 113 113 112 109 107 106 106 104 102 100 99 98 95 92 89 88 87 87 87 85 85 83 82 79 76
49 39 35 22 8 343 334 331 326 326 311 262 184 152 146 143 139 137 128 131 126 110 130 137 139 140 126 121 125 127 134 147 153 153 150 146 148 149 148 150 151 151 150 149 148 147 147 146 143 139 135 134 134 133 131 130 129 127 127 128 130 132 133 133 129 127 125 122 118 115 113 113 114 112 109 105 104 103 102 100 98 97 94 92 90 88 86 84 84 86 87 88 87 85 83 80 76
46 32 17 7 2 348 346 341 335 328 310 156 155 149 141 143 139 137 124 123 122 118 132 127 152 144 123 129 128 126 141 148 152 150 147 148 149 149 149 151 152 151 151 150 150 149 149 146 144 139 135 135 134 132 131 129 128 127 128 128 127 128 128 126 125 124 124 122 119 115 113 113 114 111 107 104 102 100 97 95 94 92 90 89 87 87 85 84 84 85 87 89 90 88 86 83 79
54 47 9 3 359 355 355 346 348 339 285 177 149 143 145 150 139 140 126 122 134 141 146 135 168 156 128 139 132 130 145 148 152 150 148 149 149 150 150 152 153 153 153 152 152 152 150 147 144 138 135 136 135 134 132 130 129 128 127 126 125 125 124 121 121 122 122 122 120 117 115 114 112 109 106 104 101 98 95 93 93 91 90 90 90 89 87 85 84 84 85 88 90 90 89 87 85
94 37 5 7 359 355 353 344 353 3 236 174 145 141 147 152 139 142 135 134 149 155 160 156 178 167 140 141 133 136 145 150 153 149 150 150 150 152 152 153 155 156 156 154 155 154 152 148 143 138 138 138 137 135 133 132 130 129 127 125 124 123 120 117 117 118 119 121 120 119 117 114 111 107 106 103 99 97 95 95 95 94 94 92 90 87 85 83 83 83 84 86 87 89 90 89 88
94 30 358 355 352 349 347 348 358 5 172 145 130 132 139 146 139 143 147 150 159 161 159 163 172 160 146 139 133 139 146 152 155 151 151 151 152 154 154 155 157 159 158 157 157 155 153 147 142 140 141 140 139 137 134 134 131 129 127 125 123 120 116 114 112 112 115 118 119 119 117 114 110 106 103 101 99 97 97 97 97 96 94 89 86 83 81 80 79 80 82 84 84 85 87 88 86
75 35 343 336 341 343 339 345 360 350 197 158 139 124 130 155 152 146 154 155 163 163 155 165 162 154 148 140 137 141 149 153 155 153 152 153 154 155 157 157 158 161 160 159 158 157 154 148 144 144 144 143 140 138 136 134 131 129 127 125 122 118 116 113 110 109 111 114 117 118 117 115 111 107 104 102 100 100 99 98 98 95 92 87 83 80 78 77 77 78 82 85 83 82 85 85 82
71 30 345 332 339 343 338 351 6 8 168 161 153 124 115 150 163 160 159 152 163 159 148 162 156 159 155 141 140 145 151 155 157 157 155 155 155 155 157 159 161 162 162 162 160 158 155 151 148 146 146 146 142 140 137 134 132 130 128 125 121 118 115 112 109 108 108 111 114 117 118 117 114 111 108 106 105 104 103 101 98 96 92 85 80 77 75 74 75 77 81 87 87 85 85 81 78
79 30 346 323 332 346 345 2 21 104 156 147 148 131 116 136 156 164 166 152 159 156 145 156 156 169 165 146 145 150 155 158 160 160 158 157 156 157 158 161 163 163 164 164 163 161 158 154 151 149 149 148 145 142 138 135 133 131 129 126 121 118 114 110 108 108 108 110 114 118 120 119 117 114 112 111 110 107 105 104 101 97 92 84 79 75 73 73 74 75 78 84 89 89 86 81 77
80 31 330 311 322 340 356 6 359 326 176 150 134 130 132 132 145 150 174 159 150 160 156 154 157 179 177 161 154 153 155 158 161 161 159 160 159 160 161 164 166 165 167 167 167 165 162 159 153 151 152 150 147 144 140 137 134 132 130 127 123 118 114 110 109 109 109 112 116 119 121 121 118 117 117 116 113 110 108 106 103 98 91 84 80 75 72 72 74 76 79 83 87 89 88 84 78
69 3 290 294 309 323 358 351 333 351 119 150 128 120 128 122 136 139 168 187 156 160 161 152 155 182 188 177 159 153 155 157 162 163 161 164 163 164 165 167 167 167 170 170 171 168 165 163 156 154 154 153 149 145 142 139 136 135 133 130 125 120 115 112 110 109 110 113 116 119 121 121 121 121 121 119 116 113 111 108 104 98 92 86 82 78 73 72 74 78 80 82 84 86 87 86 80
263 242 260 272 283 300 332 324 314 64 105 132 130 125 117 124 147 139 142 187 166 155 155 156 156 173 183 172 161 157 156 158 163 165 167 167 165 167 168 168 170 171 173 174 174 171 168 167 160 156 157 156 152 148 144 141 139 138 137 132 127 123 119 117 114 111 111 112 114 116 119 120 121 122 120 119 118 114 111 108 104 101 96 90 84 79 76 73 76 80 81 81 80 82 82 82 80
229 235 245 255 260 276 302 295 264 187 137 101 124 148 144 143 155 144 140 154 159 158 160 163 154 162 174 171 167 164 161 162 166 170 172 171 169 170 171 171 173 174 175 176 175 173 172 170 166 162 161 159 154 150 146 143 142 141 140 134 131 128 125 123 119 116 114 114 114 114 116 118 119 118 119 119 118 115 113 111 108 105 100 94 86 78 76 77 78 82 82 79 77 79 79 78 77
217 225 240 249 251 265 293 271 197 193 151 119 119 176 180 152 153 140 148 157 152 159 162 164 165 165 173 177 176 173 168 167 169 173 175 175 175 174 173 173 174 176 176 177 175 174 176 173 172 168 164 162 156 151 148 145 145 145 142 139 136 133 132 129 124 121 120 119 118 118 117 118 120 119 121 120 119 118 116 116 113 108 103 96 89 82 78 80 78 77 80 76 70 69 71 75 75
215 219 235 245 269 273 274 256 187 151 145 139 131 165 169 157 159 144 154 155 151 163 168 172 180 175 176 179 182 180 173 171 171 175 178 177 178 177 177 177 176 177 177 177 175 174 177 176 176 172 167 164 159 154 150 148 148 148 146 143 142 140 138 134 129 126 125 124 121 121 121 121 122 122 122 121 120 119 117 119 118 113 108 100 91 86 77 77 78 74 77 74 64 59 60 66 68
215 224 235 237 264 263 249 242 203 155 154 149 143 151 158 166 172 164 166 160 161 174 183 190 192 182 182 178 178 180 178 177 174 176 180 178 179 179 179 180 180 180 179 179 176 176 177 178 180 175 170 167 162 158 153 151 151 151 151 149 147 146 144 140 135 132 128 125 122 121 121 121 122 124 124 121 120 119 120 120 120 117 111 102 95 91 80 74 76 75 73 66 61 57 54 58 61
215 229 244 237 242 250 251 237 207 197 162 143 154 144 150 172 179 184 180 176 184 186 188 201 202 188 195 183 176 179 183 185 179 177 180 181 181 180 179 181 182 183 184 182 178 179 178 179 182 177 173 169 164 162 157 156 156 154 155 153 153 152 150 146 140 136 131 127 124 121 121 120 121 124 123 121 121 119 121 121 120 119 111 103 95 90 85 67 64 70 68 59 57 53 49 55 63
218 230 242 241 242 251 262 236 199 205 212 157 149 137 164 174 174 198 191 181 205 201 197 200 192 190 197 192 185 182 186 189 183 181 182 183 183 182 181 183 185 188 189 185 180 181 180 181 182 179 177 172 166 167 164 161 160 160 159 158 158 157 156 153 148 142 134 130 128 123 120 119 119 122 124 124 125 123 123 123 120 117 109 101 87 83 87 76 63 63 61 58 56 45 40 45 57
221 229 234 238 245 251 257 235 212 212 218 233 143 144 193 196 181 175 167 189 204 202 209 201 179 187 186 191 195 186 188 189 185 185 186 186 186 186 186 186 189 191 193 189 184 185 184 183 184 180 180 176 171 170 169 167 166 165 164 163 163 163 164 162 156 150 140 134 131 129 125 122 121 120 125 126 124 125 125 122 119 114 104 96 88 81 75 70 62 56 57 56 50 39 31 32 52
225 230 232 242 248 254 258 245 233 224 199 209 229 180 181 206 196 162 168 197 199 188 201 202 180 187 183 184 191 187 189 190 187 186 187 189 188 190 192 191 191 193 197 193 187 189 189 187 187 184 182 180 176 173 173 173 172 171 168 167 167 168 169 165 161 155 147 140 137 135 129 124 122 118 121 124 122 123 122 118 116 109 92 88 91 83 66 64 62 50 52 49 43 39 23 13 44
224 231 232 242 252 258 259 261 254 226 195 190 229 227 184 200 205 170 179 196 194 185 192 200 192 188 182 180 187 186 186 190 190 186 186 188 188 191 193 193 194 195 198 195 188 190 194 191 190 189 185 184 181 177 178 178 176 175 173 172 172 175 171 166 165 158 151 148 145 138 128 123 121 118 120 123 125 121 114 110 108 105 93 88 86 81 71 64 60 49 47 39 35 36 21 18 38
223 232 232 237 249 255 254 262 271 227 203 196 210 230 212 204 203 180 184 201 201 190 194 198 189 184 180 182 191 183 181 188 187 185 186 188 190 192 192 193 195 196 199 198 192 191 197 194 191 193 190 188 186 181 183 183 180 179 178 176 176 179 175 168 166 161 154 154 154 141 130 129 127 126 128 128 128 118 108 103 104 104 95 91 76 77 77 59 56 54 56 45 36 36 29 38 41
226 235 239 236 239 248 251 255 266 248 225 215 203 225 223 204 209 196 189 205 206 195 200 191 175 179 176 181 193 184 184 186 183 186 189 190 191 191 192 194 194 196 198 200 197 193 197 197 193 195 193 192 190 187 188 189 186 185 183 181 181 182 179 171 168 164 159 157 159 147 136 136 135 135 136 135 128 117 113 106 103 97 89 94 90 85 87 68 64 67 67 57 47 47 42 39 36
229 236 246 242 234 238 244 246 253 255 239 222 209 230 234 221 216 195 181 191 197 194 198 188 178 178 169 171 184 188 191 190 187 189 192 194 194 192 194 193 192 196 197 198 200 196 197 200 197 197 197 195 193 191 191 193 193 190 188 186 185 186 183 179 175 168 160 158 164 159 147 145 147 143 137 136 129 118 121 113 106 104 99 103 102 95 87 68 63 68 70 64 55 50 42 29 24
234 236 244 244 236 232 234 238 238 240 237 221 215 228 232 227 211 186 181 191 197 194 193 194 191 186 173 166 175 189 195 197 196 192 192 196 198 196 195 194 192 197 199 197 198 197 199 201 199 200 200 198 197 196 194 196 197 193 192 190 189 189 187 187 186 176 165 164 170 171 163 157 158 154 144 143 139 128 128 129 122 119 110 103 94 89 89 81 73 78 81 71 58 45 35 20 17
237 234 237 239 243 235 229 233 229 229 231 220 216 228 230 222 208 200 195 194 196 194 193 199 200 196 190 172 172 190 197 201 203 199 196 197 201 199 197 200 196 196 202 199 196 197 201 203 200 201 202 200 201 200 197 198 200 197 195 194 193 192 190 191 190 182 173 172 172 174 177 171 168 169 157 154 158 150 143 145 139 126 113 100 86 76 84 88 77 73 63 55 58 50 38 19 15
232 232 234 232 240 240 232 233 224 221 226 219 215 225 230 220 208 206 192 185 195 199 196 201 201 198 198 186 179 190 198 203 205 205 203 197 200 202 199 205 203 199 203 201 198 198 201 204 202 202 203 203 203 202 200 201 202 201 199 199 197 193 192 194 193 187 179 177 176 176 182 182 179 183 173 167 173 160 150 152 140 128 117 101 89 73 66 72 65 59 54 50 55 56 53 29 14
229 230 235 228 229 233 235 235 224 220 221 215 216 220 227 221 205 206 197 191 203 201 192 197 201 200 204 200 189 190 197 202 203 205 205 197 195 200 202 206 207 206 206 205 202 200 202 204 202 201 202 205 205 203 203 203 203 204 202 202 199 195 195 195 195 192 183 176 178 180 184 188 186 191 189 179 179 162 150 156 143 135 121 98 90 80 62 64 67 60 53 56 59 54 55 46 22
227 224 230 230 225 224 230 232 225 227 222 212 215 218 223 221 205 207 204 196 201 195 188 196 203 204 208 207 196 196 201 201 200 200 203 197 192 196 202 207 210 210 211 210 206 203 205 205 203 201 200 205 207 205 206 205 204 204 204 205 201 198 196 196 196 193 185 177 178 183 184 189 188 192 197 188 182 172 160 166 165 146 119 104 96 91 68 57 70 71 59 64 68 58 48 48 39
225 219 220 227 230 226 226 229 225 225 222 210 208 212 217 221 218 212 199 189 192 194 194 200 205 208 212 213 205 200 203 202 199 197 199 195 192 196 199 204 209 210 212 213 210 207 207 207 205 203 201 205 208 207 206 206 206 204 205 205 200 199 196 195 196 191 187 181 179 183 183 187 190 191 198 197 193 183 171 178 185 160 120 113 96 89 71 47 56 74 77 77 77 70 54 51 43
221 219 217 219 228 231 228 231 231 224 217 209 206 207 208 215 223 210 191 185 191 199 204 205 203 205 212 218 215 208 206 202 199 201 200 194 193 196 199 204 206 207 209 211 214 212 210 209 207 203 201 205 210 209 206 206 205 204 205 203 198 199 195 194 197 191 188 185 180 185 185 185 191 194 200 203 204 200 189 185 180 161 124 97 80 84 79 52 49 66 82 89 90 72 50 53 39
219 225 227 220 221 227 230 232 232 224 210 203 203 206 205 212 218 203 187 190 196 202 209 208 202 205 215 223 219 214 210 201 199 202 204 202 196 195 200 204 205 206 207 208 213 214 214 213 210 206 202 206 212 211 209 208 205 203 203 201 197 198 197 195 197 193 190 188 182 187 188 185 192 196 204 212 213 211 207 201 190 169 126 84 79 92 72 59 64 72 75 79 85 68 41 49 33
223 232 236 231 222 221 229 233 233 229 209 199 198 203 205 209 212 203 192 194 200 204 209 211 212 217 223 225 219 216 214 206 203 203 205 205 199 197 202 205 206 208 208 207 211 214 215 216 214 210 205 208 215 214 213 211 207 204 203 201 199 199 200 197 197 197 196 193 184 186 190 188 194 199 205 216 219 215 212 215 212 184 136 114 113 68 56 67 75 82 83 65 69 57 27 26 21
226 233 240 244 236 225 226 231 237 236 213 200 197 198 200 201 206 210 206 204 206 212 218 218 220 221 222 224 221 216 214 212 209 205 205 206 201 200 203 205 207 211 212 209 210 213 215 217 216 213 210 210 214 215 215 213 209 205 203 202 202 202 202 200 201 202 203 201 190 189 195 193 197 204 207 215 222 220 213 214 215 194 163 146 97 35 41 65 74 85 89 66 57 43 10 12 16
225 231 238 244 243 236 230 228 237 240 220 202 196 195 198 199 205 214 215 211 210 217 221 217 216 220 224 228 225 216 212 214 215 210 208 210 206 202 202 203 205 210 213 211 210 213 215 217 218 215 212 210 213 214 214 213 209 205 202 201 202 203 203 203 205 205 207 205 195 192 199 201 201 208 213 217 224 225 218 215 213 203 193 176 121 31 33 64 81 94 92 71 49 38 12 12 18
223 227 231 238 241 240 238 233 234 239 226 205 195 193 199 207 214 218 214 208 211 217 216 209 213 222 228 231 228 222 217 217 219 215 213 215 211 207 203 201 204 209 213 213 213 216 218 219 219 218 214 210 212 213 212 212 209 204 202 200 199 201 202 204 205 205 207 205 198 195 202 206 205 212 220 223 227 228 225 222 219 214 207 187 154 93 41 60 81 92 89 82 58 42 21 15 19
222 224 226 231 237 238 245 248 235 231 220 199 193 190 197 208 214 216 209 202 205 212 214 212 215 218 220 223 225 225 222 219 222 221 221 222 218 213 207 202 204 207 208 210 212 215 219 221 219 218 216 213 212 212 211 212 211 207 205 202 200 199 200 203 203 205 209 208 203 203 209 213 213 217 225 227 229 230 227 226 225 224 222 210 198 171 42 53 83 83 84 91 73 55 39 24 24
222 223 224 226 233 238 246 255 247 239 220 194 193 197 194 201 208 210 209 205 205 210 221 223 218 213 214 218 222 222 223 222 224 225 226 227 223 218 212 204 202 203 202 204 208 212 216 221 220 218 217 215 213 213 212 213 212 210 209 208 205 203 202 203 203 207 211 212 211 210 214 222 222 223 230 232 230 230 228 227 224 224 226 222 225 250 289 282 103 63 72 89 79 67 59 43 34
222 222 223 226 231 236 242 253 256 256 247 203 195 201 200 199 204 208 210 210 211 215 223 224 217 211 212 218 223 222 226 231 230 228 227 225 224 222 216 206 199 198 200 202 205 208 213 218 220 218 218 217 215 214 213 215 214 212 211 211 210 207 204 204 208 212 213 214 217 215 214 223 229 227 231 235 229 226 229 229 228 226 228 228 229 242 254 259 265 249 93 104 103 81 63 55 49
223 219 219 226 232 235 239 248 255 259 262 230 199 199 202 201 204 206 209 212 214 216 220 222 220 214 212 218 223 223 228 233 229 228 230 225 220 219 213 201 194 195 198 200 203 205 209 216 219 218 217 218 216 215 214 216 216 215 214 214 213 211 207 205 210 215 216 214 218 220 214 220 230 227 227 234 230 224 226 229 231 232 235 236 235 242 247 249 255 236 202 191 167 125 69 59 63
220 218 217 224 228 231 238 244 254 261 265 258 212 198 194 207 211 209 208 209 212 214 216 222 225 219 214 217 220 222 226 225 221 224 233 231 221 216 209 200 197 196 195 197 201 202 204 211 217 218 216 217 217 215 214 216 217 216 215 215 214 213 211 210 210 215 217 214 216 221 216 215 227 228 223 230 231 225 224 226 229 231 237 241 243 251 249 239 247 250 244 222 190 161 110 68 75
216 218 221 225 224 224 232 238 249 264 260 260 248 211 197 201 214 216 212 206 207 213 215 222 227 218 213 216 217 220 222 220 220 225 232 230 220 216 212 208 204 200 198 199 202 203 202 207 214 216 215 217 218 215 214 215 216 217 217 217 215 213 215 215 213 215 218 218 217 221 220 214 221 227 223 225 229 226 225 227 229 230 233 241 247 254 253 241 241 253 264 260 223 194 177 116 97
212 214 220 228 225 215 218 226 236 254 252 251 258 240 221 218 221 222 216 208 209 217 217 219 224 217 211 212 215 218 222 221 221 227 229 222 213 213 214 212 209 204 203 202 202 205 204 205 209 213 215 216 218 217 214 213 214 215 216 217 217 215 216 217 217 217 219 222 221 223 224 216 216 224 223 220 222 224 224 225 229 233 233 236 243 248 251 248 243 250 263 264 247 213 198 195 188
211 211 213 219 218 205 205 213 222 233 246 246 253 253 245 248 246 228 214 210 215 224 218 215 220 219 214 212 214 219 220 220 224 225 224 218 211 208 208 209 206 204 205 202 202 206 205 204 206 210 214 216 219 219 214 213 213 214 215 215 216 216 216 217 218 218 219 222 224 223 224 221 215 219 223 217 212 217 221 220 222 230 232 231 234 240 243 244 241 244 252 256 256 232 210 208 226
207 209 207 205 195 186 198 197 209 229 239 238 245 257 252 248 253 238 213 208 219 228 216 209 216 219 216 214 215 220 221 224 230 224 219 220 216 208 204 205 203 202 203 203 203 205 203 203 206 209 212 215 220 220 216 214 212 213 215 215 216 217 216 216 217 218 218 221 224 225 225 224 215 210 215 215 209 210 214 217 217 218 223 225 228 235 240 240 237 237 244 251 250 237 219 214 224
205 208 205 207 209 198 181 196 199 194 220 225 231 245 248 239 243 244 226 210 220 232 213 202 215 219 215 212 214 222 225 227 231 226 223 227 221 211 204 203 202 199 200 202 203 205 203 201 203 207 209 211 216 219 217 214 211 211 213 213 215 216 216 216 217 218 219 220 223 226 227 225 216 204 202 208 212 209 206 212 218 216 217 223 226 232 238 241 239 236 240 247 247 239 227 221 221
203 206 208 212 213 211 205 204 202 188 183 208 214 227 237 241 244 243 233 218 224 236 214 202 214 218 212 208 212 220 223 227 234 235 234 232 222 213 206 204 204 200 201 203 203 204 202 200 202 204 206 208 212 217 218 214 210 211 212 212 213 214 215 215 216 218 219 220 221 225 228 227 218 208 203 205 211 211 207 209 217 220 218 220 226 232 238 243 245 242 238 238 241 239 228 223 223
196 200 210 212 210 214 220 195 198 201 216 215 213 225 233 238 246 238 231 228 228 228 213 208 215 217 212 208 210 216 221 229 237 236 234 229 220 214 209 208 208 204 204 207 205 203 200 198 201 203 204 205 208 213 216 214 211 210 211 211 212 213 215 215 216 218 219 221 222 223 227 227 220 212 210 208 207 208 208 208 213 222 223 222 226 234 243 248 251 251 246 239 236 237 230 225 226
195 197 207 207 206 218 225 203 186 197 225 222 215 223 224 222 230 230 227 230 228 221 213 212 216 214 210 208 210 216 224 230 233 230 227 224 221 218 213 210 210 208 208 211 210 206 202 199 200 204 205 205 206 209 212 213 212 211 211 212 212 213 215 216 217 218 220 223 223 223 226 228 222 214 212 213 209 204 204 205 209 220 228 231 231 236 245 253 257 259 257 253 244 239 235 233 231
205 201 202 200 201 211 214 207 190 195 208 220 215 220 220 216 220 224 223 224 224 220 215 214 212 204 202 207 212 216 222 227 227 226 221 217 219 219 215 210 208 209 211 215 216 212 205 199 200 206 208 207 208 209 211 212 212 212 213 213 215 215 216 218 219 219 221 224 225 225 227 228 225 217 213 214 214 208 203 199 201 211 227 240 243 241 248 257 266 269 267 266 261 251 243 239 237
209 205 197 200 210 210 205 209 216 205 196 216 217 217 219 221 224 225 222 217 216 218 216 213 210 204 203 208 213 214 217 222 224 223 216 210 212 214 212 209 207 208 210 213 216 213 206 199 199 206 209 208 209 209 210 212 212 212 212 214 216 217 217 219 220 222 224 225 227 229 228 227 225 221 216 214 214 214 211 204 199 202 212 230 248 259 264 269 276 281 279 275 271 266 256 245 243
205 207 193 193 207 210 205 213 223 228 240 208 210 227 227 229 233 230 223 214 210 212 216 212 207 208 211 212 215 217 217 218 222 222 213 206 205 205 202 202 205 207 207 207 209 209 206 200 197 204 209 209 210 210 211 213 213 212 212 213 215 218 218 219 221 223 225 226 228 229 229 228 225 222 220 219 216 213 214 215 215 213 212 221 239 257 274 286 292 296 294 289 282 277 270 257 249
203 209 198 191 197 197 192 206 219 225 242 241 219 262 242 238 245 235 222 211 206 206 211 211 204 206 213 214 217 220 216 214 219 218 209 201 200 199 196 198 201 203 202 202 203 204 202 196 193 199 208 210 211 212 213 214 214 213 213 213 215 217 219 220 221 223 224 225 228 229 229 229 227 224 222 223 224 220 217 217 220 225 228 230 236 248 263 276 291 301 301 302 302 297 288 275 261